Regional Weather Roundup
Issued by NWS Upton, NY

Current Version | Previous Version | Text Only | Print | Product List | Glossary On
Versions: 1 2 3 4 5 6 7 8 9 10 11 12 13 14 15 16 17 18 19 20 21 22 23 24 25 26 27
000 ASUS41 KOKX 270009 RWROKX REGIONAL WEATHER ROUNDUP NATIONAL WEATHER SERVICE NEW YORK NY 800 PM EDT FRI MAY 26 2017 NOTE: "FAIR" INDICATES FEW OR NO CLOUDS BELOW 12,000 FEET WITH NO SIGNIFICANT WEATHER AND/OR OBSTRUCTIONS TO VISIBILITY. NYZ071-072-176-178-NJZ106-104-270100- NEW YORK CITY METRO AREA CITY SKY/WX TMP DP RH WIND PRES REMARKS Central Park MOCLDY 71 53 52 NW8 29.72R Wall St Helipt CLEAR 69 57 65 W6 29.71R Bronx Bot Gard N/A 72 52 49 NW6 29.71R LaGuardia APRT MOCLDY 71 53 52 NW14 29.68R Kennedy INTL PTCLDY 72 57 59 W13G20 29.70R Breezy Point N/A 66 N/A N/A W12G18 N/A Newark/Liberty PTCLDY 71 57 61 W13 29.70R Teterboro MOCLDY 72 54 53 NW7 29.69R $$ NYZ177-179-078>081-270100- LONG ISLAND NEW YORK CITY SKY/WX TMP DP RH WIND PRES REMARKS Jones Beach N/A 64 N/A N/A W7 N/A Matinecock PT N/A 72 N/A N/A NW21G30 N/A Farmingdale CLEAR 72 53 51 NW7 29.68R MacArthur/ISP MOCLDY 72 54 53 NW15 29.67R Shirley MOCLDY 69 57 65 NW7 29.67R Mt Sinai Harb N/A 63 N/A N/A NW7 N/A Westhampton MOCLDY 64 57 78 CALM 29.68R East Hampton MOCLDY 59 55 89 CALM 29.67R Montauk N/A 59 57 93 CALM 29.68R $$ NYZ052-065-067-270100- HUDSON VALLEY CITY SKY/WX TMP DP RH WIND PRES REMARKS White Plains PTCLDY 69 51 52 NW18G26 29.70R Larchmont Harb N/A 70 N/A N/A W14 N/A Croton O-T Hud N/A 68 N/A N/A NW10 N/A Newburgh NOT AVBL Montgomery CLOUDY 67 54 63 NW12 29.72R Poughkeepsie CLOUDY 64 57 78 N3 29.71R Albany CLOUDY 57 54 89 N5 29.73R $$ NJZ001-105-106-008-010-013-015-019>022-104-270100- NEW JERSEY CITY SKY/WX TMP DP RH WIND PRES REMARKS Newark/Liberty PTCLDY 71 57 61 W13 29.70R Teterboro MOCLDY 72 54 53 NW7 29.69R Caldwell CLEAR 72 53 51 NW8G17 29.72R Somerville CLEAR 69 56 62 VRB3 29.72R Linden N/A 70 55 59 W10G17 29.71R Perth Amboy N/A 68 N/A N/A W13 N/A Sussex PTCLDY 67 54 63 N6 29.75R Andover N/A 68 52 56 VRB7 29.75R Trenton CLOUDY 70 55 59 W10 29.75R Millville MOCLDY 69 58 67 W13 29.79R Atlantic City PTCLDY 70 56 61 W10 29.76R Wrightstown CLOUDY 70 54 57 W12 29.72R Toms River CLOUDY 69 58 67 W5 29.75R Belmar CLOUDY 69 54 58 W12G20 29.73R $$ PAZ047>061-062-071-270100- EASTERN PENNSYLVANIA CITY SKY/WX TMP DP RH WIND PRES REMARKS Philadelphia CLOUDY 72 52 49 W15 29.78R Allentown CLOUDY 68 53 58 NW7G16 29.77R Scranton MOCLDY 65 55 70 NW10 29.79R $$ CTZ002-004>006-009-010-012-RIZ004-006-007-MAZ004-011-015-270100- SOUTHERN NEW ENGLAND IN CT CITY SKY/WX TMP DP RH WIND PRES REMARKS Bradley INTL CLOUDY 62 55 77 NW7 29.69R Hartford CLOUDY 65 55 70 NW14G21 29.68R Danbury CLOUDY 65 54 67 NW10G18 29.72R Wtrbury/Oxford MOCLDY 63 54 72 N9 29.70R Bridgeport CLOUDY 73 54 51 NW12G20 29.67R Meriden CLOUDY 63 58 83 NW7 29.69R New Haven CLOUDY 63 58 83 E3 29.69R Chester CLOUDY 61 61 100 CALM 29.69R Groton LGT RAIN 57 55 93 CALM 29.68R Wilimantic CLOUDY 63 59 87 MISG 29.68R IN RI CITY SKY/WX TMP DP RH WIND PRES REMARKS Providence LGT RAIN 59 58 96 CALM 29.67R Block Island LGT RAIN 59 56 89 SW5 29.68R FOG Westerly CLOUDY 61 57 87 CALM 29.68R IN MA CITY SKY/WX TMP DP RH WIND PRES REMARKS Boston CLOUDY 54 52 93 E10 29.67R Worcester LGT RAIN 55 52 89 W12 29.67R FOG Westfield NOT AVBL Provincetown CLOUDY 51 49 92 NE6 29.68R Nantucket CLOUDY 55 52 89 W6 29.67R $$ ANZ330-335-338-340-345-350-353-355-270100- COASTAL MARINE OBSERVATIONS STATION/POSITION TIME SKY/WX TEMP WIND PRES VSBY WAVE AIR SEA DIR/SP/G HT/PER (UTC) (F) (DEG/KT/KT) (MB) (MI) (FT/S) NY HARB ENTRANCE 2350 65 57 280/ 14/ 17 1005.2 4/ 8 20 S FIRE ISLAND 2350 62 56 270/ 10/ 12 1004.6 5/ 9 GREAT SOUTH BAY 2330 70 63 310/ 6/ 12 N/A 23 SSW MONTAUK P 2250 57 55 1004.1 7/ 8 15 E BARNEGAT LI 2330 58 N/A 5/ 8 HUDSON CANYON 2250 60 55 260/ 14/ 16 1005.1 7/ 8 KINGS POINT 2324 69 60 340/ 13/ 16 1004.8 EXECUTION ROCKS 2345 69 N/A CENTRAL LI SOUND NOT AVBL EASTERN LI SOUND NOT AVBL ROBBINS REEF 2324 71 270/ 15/ 19 1005.7 $$ >>>>>>>>>>>>>>>>>>>>>>>>>>>> KEY <<<<<<<<<<<<<<<<<<<<<<<<<<< > < > SKY/WX - Sky Condition/Present Weather < > TMP - Temperature in Fahrenheit < > DP - Dew Point in Fahrenheit < > RH - Relative Humidity in Percent < > WIND - Direction (from) and Speed in MPH < > PRES - Mean Sea Level Pressure (inches of Hg) < > WCI - Wind Chill Index < > VSB - VISIBILITY IN MILES < > HX - HEAT INDEX < > TC - TEMPERATURE IN CELSIUS < > VRB - VARIABLE WIND DIRECTION < > < >>>>>>>>>>>>>>>>>>>>>>>>>>>> KEY <<<<<<<<<<<<<<<<<<<<<<<<<<<

USA.gov is the U.S. government's official web portal to all federal, state and local government web resources and services.